Flag for U.S.A. Weather past 2 weeks in Modesto, California, U.S.A.

Now
44 °F

Fog.


Feels Like: 44 °F
Forecast: 39 / 63 °F
Wind: No wind

Location: Modesto City-County-Sham Field

Current Time: Jan 25, 2015 at 11:26:08 AM

Latest Report: Jan 25, 2015 at 10:53 AM


Visibility: 3 mi

Pressure: 30.19 "Hg

Humidity: 89%

Dew point: 41 °F

Location of ModestoLocation

Historic Weather in Modesto — Graph

°F

Modesto temperature yesterday

Maximum temperature yesterday: 46 °F (at 2:53 PM)
Minimum temperature yesterday: 43 °F (at 5:53 AM)
Average temperature yesterday: 44 °F

Past Weeks' High & Low Weather Summary

 TemperatureHumidityPressure
High64 °F (Jan 10, 1:53 PM)100% (Jan 23, 8:53 AM)30.40 "Hg (Jan 23, 8:53 AM)
Low34 °F (Jan 23, 3:53 AM)54% (Jan 10, 3:53 PM)29.93 "Hg (Jan 10, 2:53 PM)
Average48 °F89%30.22 "Hg
* Reported Jan 10 10:53 AM — Jan 25 10:00 AM, Modesto, Weather by CustomWeather, © 2014

Note: Actual official high and low records may vary slightly from our data, if they occured in-between our weather recording intervals... More about our weather records

Advertising

Modesto weather history for previous 24 hours

 ConditionsComfort  
Time TempWeatherWind HumidityBarometerVisibility
10:00 AM
Jan 25
44 °FFog.No wind93%30.19 "Hg2 mi
8:53 AM42 °FFog.No wind96%30.19 "Hg1 mi
7:53 AM42 °FFog.No wind96%30.19 "Hg1 mi
7:04 AM43 °FFog.No wind93%30.18 "Hg1 mi
6:53 AM43 °FFog.3 mph93%30.18 "Hg1 mi
5:53 AM43 °FFog.No wind97%30.18 "Hg1 mi
4:53 AM43 °FFog.No wind97%30.18 "Hg1 mi
3:53 AM43 °FFog.10 mph97%30.19 "Hg2 mi
2:53 AM44 °FFog.5 mph93%30.20 "Hg2 mi
1:53 AM44 °FFog.7 mph93%30.20 "Hg2 mi
12:53 AM44 °FFog.6 mph93%30.20 "Hg2 mi
11:53 PM
Jan 24
44 °FFog.10 mph93%30.20 "Hg2 mi
11:03 PM44 °FFog.10 mph93%30.21 "Hg2 mi
10:53 PM44 °FFog.10 mph93%30.21 "Hg1 mi
9:53 PM44 °FFog.8 mph93%30.19 "Hg2 mi
8:53 PM44 °FFog.7 mph93%30.18 "Hg2 mi
7:53 PM45 °FFog.8 mph93%30.16 "Hg1 mi
6:53 PM45 °FFog.8 mph93%30.16 "Hg1 mi
5:53 PM45 °FFog.5 mph93%30.15 "Hg3 mi
4:53 PM45 °FFog.7 mph93%30.15 "Hg2 mi
3:53 PM46 °FFog.5 mph89%30.16 "Hg2 mi
2:53 PM46 °FFog.5 mph89%30.17 "Hg3 mi
1:53 PM44 °FFog.5 mph93%30.19 "Hg3 mi
12:53 PM45 °FFog.6 mph93%30.20 "Hg2 mi
11:53 AM44 °FFog.3 mph93%30.24 "Hg1 mi
Weather by CustomWeather, © 2014

See weather overviewHow to use our weather pages